User: anonymous   Login
Location: Unspecified
(0.0000°N, 0.0000°E)
Time: 17:30:57
(UTC+00:00)
Language:

COSMOS 2416 - Orbit

View from above orbital plane
View from above orbital plane
View from above satellite
View from above satellite

Ground track
Ground track

The orbit data is extracted from the following two-line orbital elements,

1 28909U 05048B   18049.72498396 +.00000018 +00000-0 +50412-4 0  9990
2 28909 082.4680 093.2750 0008512 103.3285 256.8758 12.55170023557220
Epoch (UTC): 18 February 2018 17:23:58
Eccentricity: 0.0008512
inclination: 82.4680°
perigee height: 1436 km
apogee height: 1449 km
right ascension of ascending node: 93.2750°
argument of perigee: 103.3285°
revolutions per day: 12.55170023
mean anomaly at epoch: 256.8758°
orbit number at epoch: 55722

The dashed part of the orbit path shows where the satellite is in the earth's shadow,  

DLR